| time (UTC) | temp C | wind direction | speed KPH | gust KPH | rain 1hr cm | rain 24hr cm | rain mn cm | humidity % | barometer mb |
| 20260506155016 | 12 | 0.0 | 0.0 | 0.00 | 0.00 | 0.00 | 92 | 1020.1 | |
| 20260506154017 | 12 | 0.0 | 0.0 | 0.00 | 0.00 | 0.00 | 94 | 1020.1 | |
| 20260506153017 | 12 | 0.0 | 0.0 | 0.00 | 0.00 | 0.00 | 95 | 1020.0 | |
| 20260506152036 | 11 | 0.0 | 0.0 | 0.00 | 0.00 | 0.00 | 95 | 1019.9 | |
| 20260506151057 | 11 | 0.0 | 0.0 | 0.00 | 0.00 | 0.00 | 96 | 1019.9 | |
| 20260506150057 | 11 | 0.0 | 0.0 | 0.00 | 0.00 | 0.00 | 96 | 1020.0 | |
| 20260506145037 | 11 | 0.0 | 0.0 | 0.00 | 0.00 | 0.00 | 96 | 1019.9 | |
| 20260506144017 | 11 | 0.0 | 0.0 | 0.00 | 0.00 | 0.00 | 96 | 1019.8 | |
| 20260506143017 | 11 | 0.0 | 0.0 | 0.00 | 0.00 | 0.00 | 96 | 1019.7 | |
| 20260506142016 | 11 | 0.0 | 0.0 | 0.00 | 0.00 | 0.00 | 96 | 1019.7 | |
| 20260506141016 | 11 | 0.0 | 0.0 | 0.00 | 0.00 | 0.00 | 96 | 1019.6 | |
| 20260506140016 | 11 | 0.0 | 0.0 | 0.00 | 0.00 | 0.00 | 96 | 1019.6 | |
| 20260506135017 | 11 | 0.0 | 0.0 | 0.00 | 0.00 | 0.00 | 96 | 1019.5 | |
| 20260506134017 | 10 | 0.0 | 0.0 | 0.00 | 0.00 | 0.00 | 95 | 1019.4 | |
| 20260506133016 | 10 | 0.0 | 0.0 | 0.00 | 0.00 | 0.00 | 95 | 1019.3 | |
| 20260506132016 | 10 | 0.0 | 0.0 | 0.00 | 0.00 | 0.00 | 95 | 1019.3 | |
| 20260506131016 | 10 | 0.0 | 0.0 | 0.00 | 0.00 | 0.00 | 95 | 1019.3 | |
| 20260506130016 | 10 | 0.0 | 0.0 | 0.00 | 0.00 | 0.00 | 95 | 1019.3 | |
| 20260506125016 | 10 | 0.0 | 0.0 | 0.00 | 0.00 | 0.00 | 95 | 1019.3 | |
| 20260506124021 | 10 | 0.0 | 0.0 | 0.00 | 0.00 | 0.00 | 95 | 1019.2 | |
| 20260506123047 | 10 | 0.0 | 0.0 | 0.00 | 0.00 | 0.00 | 95 | 1018.9 | |
| 20260506122016 | 10 | 0.0 | 0.0 | 0.00 | 0.00 | 0.00 | 95 | 1018.9 | |
| 20260506121036 | 10 | 0.0 | 0.0 | 0.00 | 0.00 | 0.00 | 95 | 1018.9 | |
| 20260506120016 | 10 | 0.0 | 0.0 | 0.00 | 0.00 | 0.00 | 95 | 1018.8 | |
| 20260506115036 | 10 | 0.0 | 0.0 | 0.00 | 0.00 | 0.00 | 95 | 1018.8 | |
| 20260506114016 | 10 | 0.0 | 0.0 | 0.00 | 0.00 | 0.00 | 95 | 1018.7 | |
| 20260506113036 | 10 | 0.0 | 0.0 | 0.00 | 0.00 | 0.00 | 95 | 1018.5 | |
| 20260506112017 | 10 | 0.0 | 0.0 | 0.00 | 0.00 | 0.00 | 95 | 1018.5 | |
| 20260506111016 | 10 | 0.0 | 0.0 | 0.00 | 0.00 | 0.00 | 95 | 1018.5 | |
| 20260506110016 | 10 | 0.0 | 0.0 | 0.00 | 0.00 | 0.00 | 95 | 1018.6 | |
| 20260506105016 | 10 | 0.0 | 0.0 | 0.00 | 0.00 | 0.00 | 95 | 1018.6 | |
| 20260506104016 | 10 | 0.0 | 0.0 | 0.00 | 0.00 | 0.00 | 95 | 1018.5 | |
| 20260506103057 | 10 | 0.0 | 0.0 | 0.00 | 0.00 | 0.00 | 95 | 1018.4 | |
| 20260506102016 | 10 | 0.0 | 0.0 | 0.00 | 0.00 | 0.00 | 95 | 1018.4 | |
| 20260506101016 | 10 | 0.0 | 0.0 | 0.00 | 0.00 | 0.00 | 95 | 1018.4 | |
| 20260506100016 | 10 | 0.0 | 0.0 | 0.00 | 0.00 | 0.00 | 95 | 1018.3 | |
| 20260506095016 | 10 | 0.0 | 0.0 | 0.00 | 0.00 | 0.00 | 95 | 1018.3 | |
| 20260506094016 | 10 | 0.0 | 0.0 | 0.00 | 0.00 | 0.00 | 95 | 1018.3 | |
| 20260506093017 | 10 | 0.0 | 0.0 | 0.00 | 0.00 | 0.00 | 95 | 1018.2 | |
| 20260506092016 | 10 | 0.0 | 0.0 | 0.00 | 0.03 | 0.00 | 95 | 1018.2 | |
| 20260506091016 | 11 | 0.0 | 0.0 | 0.00 | 0.03 | 0.00 | 95 | 1018.3 | |
| 20260506090016 | 11 | 0.0 | 0.0 | 0.00 | 0.05 | 0.00 | 95 | 1018.3 | |
| 20260506085026 | 11 | 0.0 | 0.0 | 0.00 | 0.05 | 0.00 | 95 | 1018.3 | |
| 20260506084036 | 11 | 0.0 | 0.0 | 0.00 | 0.08 | 0.00 | 95 | 1018.3 | |
| 20260506083026 | 11 | 0.0 | 0.0 | 0.00 | 0.10 | 0.00 | 95 | 1018.2 | |
| 20260506082016 | 11 | 0.0 | 0.0 | 0.00 | 0.10 | 0.00 | 95 | 1018.2 | |
| 20260506081016 | 11 | 0.0 | 0.0 | 0.00 | 0.10 | 0.00 | 95 | 1018.3 | |
| 20260506073016 | 11 | 0.0 | 0.0 | 0.00 | 0.10 | 0.00 | 95 | 1018.2 | |
| 20260506072021 | 11 | 0.0 | 0.0 | 0.00 | 0.10 | 0.00 | 95 | 1018.1 | |
| 20260506071015 | 11 | 0.0 | 0.0 | 0.00 | 0.10 | 0.00 | 95 | 1018.1 | |
| 20260506062016 | 11 | 0.0 | 0.0 | 0.00 | 0.13 | 0.10 | 94 | 1017.7 | |
| 20260506061026 | 11 | 0.0 | 0.0 | 0.00 | 0.13 | 0.10 | 94 | 1017.6 | |
| 20260506060116 | 11 | 0.0 | 0.0 | 0.00 | 0.15 | 0.10 | 94 | 1017.5 | |
| 20260506051016 | 11 | 0.0 | 0.0 | 0.00 | 0.20 | 0.10 | 94 | 1016.9 | |
| 20260506045016 | 11 | 0.0 | 0.0 | 0.00 | 0.23 | 0.10 | 94 | 1016.9 | |
| 20260506044016 | 11 | 0.0 | 0.0 | 0.00 | 0.23 | 0.10 | 94 | 1016.9 | |
| 20260506043016 | 11 | 0.0 | 0.0 | 0.00 | 0.23 | 0.10 | 93 | 1016.7 | |
| 20260506042016 | 11 | 0.0 | 0.0 | 0.00 | 0.23 | 0.10 | 93 | 1016.7 | |
| 20260506041016 | 11 | 0.0 | 0.0 | 0.00 | 0.25 | 0.10 | 93 | 1016.5 | |
| 20260506040015 | 11 | 0.0 | 0.0 | 0.00 | 0.28 | 0.10 | 93 | 1016.3 | |
| 20260506035036 | 11 | 0.0 | 0.0 | 0.00 | 0.30 | 0.10 | 93 | 1016.3 | |
| 20260506034056 | 11 | 0.0 | 0.0 | 0.00 | 0.33 | 0.10 | 93 | 1016.2 | |
| 20260506033016 | 11 | 0.0 | 0.0 | 0.00 | 0.38 | 0.10 | 93 | 1016.0 | |
| 20260506032016 | 11 | 0.0 | 0.0 | 0.00 | 0.43 | 0.10 | 92 | 1015.8 | |
| 20260506031016 | 11 | 0.0 | 0.0 | 0.00 | 0.46 | 0.10 | 92 | 1015.7 | |
| 20260506030016 | 11 | 0.0 | 0.0 | 0.00 | 0.48 | 0.10 | 92 | 1015.5 | |
| 20260506025016 | 11 | 0.0 | 0.0 | 0.00 | 0.51 | 0.10 | 92 | 1015.3 | |
| 20260506024016 | 11 | 0.0 | 0.0 | 0.00 | 0.56 | 0.10 | 92 | 1015.4 | |
| 20260506023015 | 11 | 0.0 | 0.0 | 0.00 | 0.58 | 0.10 | 92 | 1015.4 | |
| 20260506022016 | 11 | 0.0 | 0.0 | 0.00 | 0.64 | 0.10 | 91 | 1015.2 | |
| 20260506021016 | 11 | 0.0 | 0.0 | 0.00 | 0.66 | 0.10 | 91 | 1015.1 | |
| 20260506020016 | 11 | 0.0 | 0.0 | 0.00 | 0.71 | 0.10 | 91 | 1015.2 | |
| 20260506015036 | 11 | 0.0 | 0.0 | 0.00 | 0.74 | 0.10 | 91 | 1015.3 | |
| 20260506014016 | 11 | 0.0 | 0.0 | 0.00 | 0.76 | 0.10 | 91 | 1015.3 | |
| 20260506013015 | 11 | 0.0 | 0.0 | 0.00 | 0.79 | 0.10 | 91 | 1015.4 | |
| 20260506012016 | 11 | 0.0 | 0.0 | 0.00 | 0.86 | 0.10 | 91 | 1015.4 | |
| 20260506011016 | 11 | 0.0 | 0.0 | 0.00 | 0.91 | 0.10 | 91 | 1015.4 | |
| 20260506010016 | 11 | 0.0 | 0.0 | 0.00 | 0.91 | 0.10 | 91 | 1015.2 | |
| 20260506005016 | 11 | 0.0 | 0.0 | 0.00 | 0.91 | 0.10 | 91 | 1015.0 | |
| 20260506004015 | 11 | 0.0 | 0.0 | 0.00 | 0.94 | 0.10 | 92 | 1014.9 | |
| 20260506003018 | 11 | 0.0 | 0.0 | 0.00 | 0.94 | 0.10 | 92 | 1014.9 | |
| 20260506002017 | 11 | 0.0 | 0.0 | 0.00 | 0.97 | 0.10 | 92 | 1014.7 | |
| 20260506001017 | 11 | 0.0 | 0.0 | 0.00 | 0.99 | 0.10 | 92 | 1014.7 | |
| 20260506000024 | 11 | 0.0 | 0.0 | 0.00 | 1.04 | 0.10 | 92 | 1014.7 | |
| 20260505235018 | 11 | 0.0 | 0.0 | 0.00 | 1.09 | 0.10 | 92 | 1014.7 | |
| 20260505234017 | 11 | 0.0 | 0.0 | 0.00 | 1.14 | 0.10 | 92 | 1014.6 | |
| 20260505233017 | 11 | 0.0 | 0.0 | 0.00 | 1.17 | 0.10 | 92 | 1014.7 | |
| 20260505232017 | 11 | 0.0 | 0.0 | 0.00 | 1.19 | 0.10 | 92 | 1014.7 | |
| 20260505231017 | 11 | 0.0 | 0.0 | 0.00 | 1.22 | 0.10 | 92 | 1014.7 | |
| 20260505230017 | 11 | 0.0 | 0.0 | 0.00 | 1.24 | 0.10 | 91 | 1014.7 | |
| 20260505225024 | 11 | 0.0 | 0.0 | 0.00 | 1.30 | 0.10 | 91 | 1014.8 | |
| 20260505224017 | 11 | 0.0 | 0.0 | 0.00 | 1.32 | 0.10 | 90 | 1014.8 | |
| 20260505223017 | 11 | 0.0 | 0.0 | 0.00 | 1.35 | 0.10 | 88 | 1014.8 | |
| 20260505222017 | 11 | 0.0 | 0.0 | 0.00 | 1.37 | 0.10 | 88 | 1015.0 | |
| 20260505221018 | 11 | 0.0 | 0.0 | 0.00 | 1.40 | 0.10 | 88 | 1015.0 | |
| 20260505220017 | 11 | 0.0 | 0.0 | 0.00 | 1.40 | 0.10 | 88 | 1015.0 | |
| 20260505215017 | 11 | 0.0 | 0.0 | 0.00 | 1.40 | 0.10 | 88 | 1015.0 | |
| 20260505214017 | 11 | 0.0 | 0.0 | 0.00 | 1.42 | 0.10 | 88 | 1015.0 | |
| 20260505213017 | 11 | 0.0 | 0.0 | 0.00 | 1.45 | 0.10 | 88 | 1015.0 | |
| 20260505212017 | 11 | 0.0 | 0.0 | 0.00 | 1.45 | 0.10 | 88 | 1015.1 | |
| 20260505211017 | 11 | 0.0 | 0.0 | 0.00 | 1.47 | 0.10 | 88 | 1015.0 | |
| 20260505210137 | 11 | 0.0 | 0.0 | 0.00 | 1.50 | 0.10 | 89 | 1014.9 | |
| 20260505205018 | 11 | 0.0 | 0.0 | 0.00 | 1.50 | 0.10 | 88 | 1014.9 | |
| 20260505204017 | 11 | 0.0 | 0.0 | 0.00 | 1.50 | 0.10 | 89 | 1015.0 | |
| 20260505203017 | 11 | 0.0 | 0.0 | 0.00 | 1.50 | 0.10 | 90 | 1014.7 | |
| 20260505202017 | 11 | 0.0 | 0.0 | 0.00 | 1.50 | 0.10 | 90 | 1014.7 | |
| 20260505201017 | 11 | 0.0 | 0.0 | 0.00 | 1.52 | 0.10 | 91 | 1014.7 | |
| 20260505200017 | 11 | 0.0 | 0.0 | 0.00 | 1.52 | 0.10 | 90 | 1014.7 | |
| 20260505195017 | 11 | 0.0 | 0.0 | 0.00 | 1.55 | 0.10 | 90 | 1014.8 | |
| 20260505194037 | 11 | 0.0 | 0.0 | 0.00 | 1.55 | 0.10 | 90 | 1014.8 | |
| 20260505193017 | 11 | 0.0 | 0.0 | 0.00 | 1.57 | 0.10 | 90 | 1014.8 | |
| 20260505192017 | 11 | 0.0 | 0.0 | 0.00 | 1.63 | 0.10 | 91 | 1014.8 | |
| 20260505191017 | 11 | 0.0 | 0.0 | 0.00 | 1.70 | 0.10 | 91 | 1014.7 | |
| 20260505190024 | 11 | 0.0 | 0.0 | 0.00 | 1.73 | 0.10 | 91 | 1014.7 | |
| 20260505185017 | 11 | 0.0 | 0.0 | 0.00 | 1.75 | 0.10 | 90 | 1014.6 | |
| 20260505184017 | 11 | 0.0 | 0.0 | 0.00 | 1.78 | 0.10 | 91 | 1014.6 | |
| 20260505183017 | 11 | 0.0 | 0.0 | 0.00 | 1.78 | 0.10 | 90 | 1014.5 | |
| 20260505182037 | 11 | 0.0 | 0.0 | 0.00 | 1.78 | 0.10 | 90 | 1014.5 | |
| 20260505181022 | 11 | 0.0 | 0.0 | 0.00 | 1.78 | 0.10 | 90 | 1014.5 | |
| 20260505180017 | 11 | 0.0 | 0.0 | 0.00 | 1.78 | 0.10 | 89 | 1014.4 | |
| 20260505175017 | 11 | 0.0 | 0.0 | 0.00 | 1.78 | 0.10 | 90 | 1014.5 | |
| 20260505174017 | 11 | 0.0 | 0.0 | 0.00 | 1.78 | 0.10 | 89 | 1014.4 | |
| 20260505173024 | 11 | 0.0 | 0.0 | 0.00 | 1.78 | 0.10 | 90 | 1014.1 | |
| 20260505172017 | 11 | 0.0 | 0.0 | 0.00 | 1.78 | 0.10 | 92 | 1014.1 | |
| 20260505171022 | 10 | 0.0 | 0.0 | 0.00 | 1.78 | 0.10 | 92 | 1014.0 | |
| 20260505170017 | 10 | 0.0 | 0.0 | 0.00 | 1.80 | 0.10 | 92 | 1014.1 | |
| 20260505165017 | 10 | 0.0 | 0.0 | 0.00 | 1.80 | 0.10 | 93 | 1014.1 | |
| 20260505164017 | 10 | 0.0 | 0.0 | 0.00 | 1.83 | 0.10 | 92 | 1014.1 | |
| 20260505163037 | 10 | 0.0 | 0.0 | 0.00 | 1.83 | 0.10 | 92 | 1014.0 | |
| 20260505162016 | 10 | 0.0 | 0.0 | 0.00 | 1.85 | 0.10 | 93 | 1014.1 | |
| 20260505161017 | 10 | 0.0 | 0.0 | 0.00 | 1.96 | 0.10 | 93 | 1014.1 |